Location: NJAA Observatory
(40.6819°N, 74.8979°W)
Time: 19:12:58
(UTC-05:00)

S-56A Canister/Altair - Visible Passes

Search period start: 10 December 2016 00:00
Search period end: 20 December 2016 00:00
Orbit: 640 x 2495 km, 38.9° (Epoch: 09 December)

Date Brightness Start Highest point End Pass type
(mag) Time Alt. Az. Time Alt. Az. Time Alt. Az.
10 Dec 8.6 18:19:15 10° W 18:25:56 79° S 18:31:00 31° E visible
10 Dec 9.4 20:22:38 10° W 20:28:26 53° WSW 20:28:26 53° WSW visible
11 Dec 8.5 17:47:10 10° WSW 17:53:23 77° S 18:00:19 19° E visible
11 Dec 8.9 19:50:25 10° W 19:57:46 71° SSW 19:57:46 71° SSW visible
11 Dec 11.1 21:54:20 10° W 21:55:12 14° W 21:55:12 14° W visible
12 Dec 8.4 17:15:07 10° WSW 17:20:55 73° S 17:29:40 10° E visible
12 Dec 8.8 19:18:15 10° W 19:25:29 74° S 19:27:07 62° SE visible
12 Dec 10.6 21:21:57 10° W 21:24:34 22° W 21:24:34 22° W visible
13 Dec 8.6 18:46:06 10° W 18:52:51 76° S 18:56:32 41° ESE visible
13 Dec 10.0 20:49:39 10° W 20:53:59 34° WSW 20:53:59 34° WSW visible
14 Dec 8.5 18:14:01 10° W 18:20:18 77° S 18:26:00 25° ESE visible
14 Dec 9.5 20:17:24 10° W 20:23:28 47° SW 20:23:28 47° SW visible
15 Dec 8.4 17:41:56 10° W 17:47:48 77° S 17:55:33 14° E visible
15 Dec 9.2 19:45:12 10° W 19:52:18 53° SSW 19:53:02 52° S visible
15 Dec 11.1 21:49:53 10° W 21:50:30 12° W 21:50:30 12° W visible
16 Dec 8.2 17:09:51 10° W 17:15:22 78° S 17:23:36 10° E visible
16 Dec 9.0 19:13:03 10° W 19:19:42 55° SSW 19:22:41 40° SSE visible
16 Dec 10.7 21:17:23 10° W 21:20:10 19° WSW 21:20:10 19° WSW visible
17 Dec 8.9 18:40:56 10° W 18:47:09 58° SSW 18:52:28 26° SE visible
17 Dec 10.3 20:44:58 10° W 20:49:57 26° SW 20:49:57 26° SW visible
18 Dec 8.7 18:08:49 10° W 18:14:41 60° SSW 18:22:24 13° ESE visible
18 Dec 10.0 20:12:39 10° W 20:19:02 30° SSW 20:19:54 29° SSW visible
19 Dec 8.5 17:36:44 10° W 17:42:15 62° SSW 17:50:24 10° ESE visible
19 Dec 9.9 19:40:23 10° W 19:46:27 31° SSW 19:50:04 24° S visible
